This is the latest recevied weather packets stored in our database for station/object N3TJJ-11. If no packets are shown the sender has not sent any weather packets the latest 10 day(s).
| Time | Temp. | Humidity | Pressure | Rain* | Wind** | Luminosity | Snow |
|---|---|---|---|---|---|---|---|
| 1777844629 | 13.33° C | 37% | 1011.9 hPa | 0 mm | - | - | - |
| 1777844148 | 13.89° C | 36% | 1011.9 hPa | 0 mm | - | - | - |
| 1777844029 | 13.89° C | 38% | 1011.9 hPa | 0 mm | - | - | - |
| 1777843428 | 13.33° C | 38% | 1011.9 hPa | 0 mm | - | - | - |
| 1777842829 | 12.78° C | 38% | 1011.9 hPa | 0 mm | - | - | - |
| 1777842708 | 12.78° C | 37% | 1011.9 hPa | 0 mm | - | - | - |
| 1777842229 | 13.33° C | 35% | 1011.9 hPa | 0 mm | - | - | - |
| 1777841988 | 13.33° C | 39% | 1011.9 hPa | 0 mm | - | - | - |
| 1777841629 | 13.89° C | 37% | 1011.9 hPa | 0 mm | - | - | - |
| 1777841268 | 13.89° C | 38% | 1011.8 hPa | 0 mm | - | - | - |
| 1777841029 | 13.89° C | 34% | 1011.8 hPa | 0 mm | - | - | - |
| 1777840548 | 13.33° C | 36% | 1011.9 hPa | 0 mm | - | - | - |
| 1777840429 | 13.33° C | 37% | 1011.9 hPa | 0 mm | - | - | - |
| 1777839828 | 13.89° C | 35% | 1012 hPa | 0 mm | - | - | - |
| 1777839229 | 13.33° C | 39% | 1011.8 hPa | 0 mm | - | - | - |
| 1777839108 | 13.33° C | 38% | 1012 hPa | 0 mm | - | - | - |
| 1777838629 | 12.78° C | 35% | 1012.2 hPa | 0 mm | - | - | - |
| 1777838388 | 13.33° C | 39% | 1012.2 hPa | 0 mm | - | - | - |
| 1777838029 | 12.78° C | 40% | 1012.3 hPa | 0 mm | - | - | - |
| 1777837668 | 12.78° C | 37% | 1012.3 hPa | 0 mm | - | - | - |
| 1777837429 | 12.78° C | 37% | 1012.3 hPa | 0 mm | - | - | - |
| 1777836948 | 12.78° C | 38% | 1012.5 hPa | 0 mm | - | - | - |
| 1777836829 | 12.78° C | 38% | 1012.5 hPa | 0 mm | - | - | - |
| 1777836228 | 12.22° C | 37% | 1012.6 hPa | 0 mm | - | - | - |
| 1777835630 | 12.22° C | 40% | 1012.6 hPa | 0 mm | - | - | - |
* Rain latest hour (hover to see other rain measurements)
** Current wind speed in m/s (hover to see current wind gust speed)